Preview of NWS' New Version of Forecast
This preview is not operational and should not be used for support decisions.

Regional Weather Roundup (RWR)

Issued by National Weather Service (NWS)

                            
000
ASUS43 KBIS 261002
RWRND 

NORTH DAKOTA REGIONAL WEATHER ROUNDUP
NATIONAL WEATHER SERVICE BISMARCK ND
500 AM CDT FRI APR 26 2019

NOTE: "FAIR" INDICATES FEW OR NO CLOUDS BELOW 12,000 FEET WITH NO
SIGNIFICANT WEATHER AND/OR OBSTRUCTIONS TO VISIBILITY.


NDZ001>003-009>011-017-261100-
NORTHWEST NORTH DAKOTA
  
CITY           SKY/WX    TMP DP  RH WIND       PRES   REMARKS
WILLISTON      PTCLDY    28  17  63 CALM      30.13S                  
MINOT          PTCLDY    31  21  66 SW10      30.11R                  
MINOT AFB      CLEAR     25  18  74 W8        30.10S WCI  16          
$$
 
NDZ018>021-031>035-040>046-261100-
SOUTHWEST NORTH DAKOTA
  
CITY           SKY/WX    TMP DP  RH WIND       PRES   REMARKS
BISMARCK       PTCLDY    30  19  63 CALM      30.16S                  
DICKINSON      CLEAR     31  11  43 S3        30.12F                  
GARRISON         N/A     28  16  60 CALM      30.12S                  
HETTINGER ARPT PTCLDY    20  15  81 CALM      30.14F                  
$$
 
NDZ004>008-012>016-024-026-027-054-261100-
NORTHEAST NORTH DAKOTA
  
CITY           SKY/WX    TMP DP  RH WIND       PRES   REMARKS
GRAND FORKS    CLEAR     31  27  85 NW7       30.08R                  
DEVILS LAKE    CLEAR     32  28  85 W9        30.10R                  
$$
 
NDZ022-023-025-028>030-036>039-047>053-261100-
SOUTHEAST NORTH DAKOTA
  
CITY           SKY/WX    TMP DP  RH WIND       PRES   REMARKS
FARGO          CLEAR     32  28  85 W3        30.08S                  
JAMESTOWN      CLEAR     32  27  81 W6        30.10S                  
$$